Location: *
(38.9555°S, 57.3572°E)
Time: 01:27:51
(UTC+00:00)

Cosmos 773 Rocket - Pass Details

Date: 15 July 2020
Orbit: 746 x 776 km, 74.1° (Epoch: 06 August)

Event Time Altitude Azimuth Distance (km) Brightness Sun altitude
Rises 13:58:38 0° 201° (SSW) 3,263 7.3 -9.9°
Reaches altitude 10° 14:01:01 10° 202° (SSW) 2,334 6.6 -10.4°
Maximum altitude 14:06:18 73° 286° (WNW) 814 4.3 -11.3°
Drops below altitude 10° 14:11:34 10° 10° (N) 2,321 6.6 -12.3°
Sets 14:13:57 0° 11° (NNE) 3,242 7.3 -12.7°
